Regional Weather Roundup
Issued by NWS Goodland, KS

Home | Current Version | Previous Version | Graphics & Text | Print | Product List | Glossary On
Versions: 1 2 3 4 5 6 7 8 9 10 11 12 13 14 15 16 17 18 19 20 21 22 23 24 25 26 27 28 29 30 31 32 33 34 35 36 37 38 39 40 41 42 43 44 45 46 47 48 49 50
000
ASUS43 KGLD 031308
RWRGLD

GOODLAND FORECAST AREA HOURLY WEATHER ROUNDUP
NATIONAL WEATHER SERVICE GOODLAND KS
700 AM MDT MON AUG 03 2015

...OFFICIAL OBSERVATIONS...

CITY           SKY/WX    TMP DP  RH WIND       PRES   REMARKS
GOODLAND KS    MOSUNNY   64  60  87 CALM      30.03R
HILL CITY KS   SUNNY     69  63  81 CALM      29.97R
IMPERIAL NEB   MOSUNNY   65  56  72 SE7       30.01R
MCCOOK NEB     MOSUNNY   64  59  83 NE5       29.99R
AKRON CO       CLOUDY    69  56  62 SW9       30.06R
BURLINGTON CO  MOSUNNY   67  61  81 CALM      30.05R
LIMON CO       CLOUDY    63  54  72 NW3       30.12R
$$

...UNOFFICIAL OBSERVATIONS...

CITY           SKY/WX    TMP DP  RH WIND       PRES   REMARKS
COLBY KS       SUNNY     66  61  82 N3        30.02R
NORTON KS      SUNNY     68  61  77 NE5       29.98
SHARON SPRINGS   N/A     67  65  92 CALM        N/A
KIT CARSON CO    N/A     67  60  77 MISG        N/A
YUMA CO          N/A     64  57  78 CALM        N/A
$$


USA.gov is the U.S. government's official web portal to all federal, state and local government web resources and services.